This is the latest recevied weather packets stored in our database for station/object K5NCO. If no packets are shown the sender has not sent any weather packets the latest 10 day(s).
| Time | Temp. | Humidity | Pressure | Rain* | Wind** | Luminosity | Snow |
|---|---|---|---|---|---|---|---|
| 1777567887 | 17.22° C | 99% | 1015.3 hPa | 3.05 mm | - | 250 W/m² | - |
| 1777567582 | 17.22° C | 99% | 1015.5 hPa | 7.87 mm | - | 143 W/m² | - |
| 1777567280 | 17.22° C | 99% | 1015.6 hPa | 8.89 mm | - | 113 W/m² | - |
| 1777566978 | 17.22° C | 99% | 1015.8 hPa | 8.89 mm | - | 73 W/m² | - |
| 1777566676 | 17.22° C | 99% | 1016.5 hPa | 7.87 mm | - | 24 W/m² | - |
| 1777566373 | 17.22° C | 99% | 1016.5 hPa | 4.32 mm | - | 17 W/m² | - |
| 1777566071 | 17.22° C | 99% | 1016 hPa | 1.27 mm | - | 19 W/m² | - |
| 1777565766 | 17.22° C | 99% | 1015.1 hPa | 0 mm | - | 32 W/m² | - |
| 1777565462 | 17.22° C | 99% | 1015.6 hPa | 0 mm | - | 22 W/m² | - |
| 1777565158 | 17.22° C | 99% | 1015.6 hPa | 0 mm | - | 31 W/m² | - |
| 1777564855 | 17.22° C | 99% | 1015.4 hPa | 0 mm | - | 47 W/m² | - |
| 1777564550 | 17.22° C | 99% | 1015.1 hPa | 0 mm | - | 61 W/m² | - |
| 1777564245 | 17.78° C | 99% | 1014.9 hPa | 0 mm | - | 79 W/m² | - |
| 1777563942 | 17.22° C | 99% | 1015.2 hPa | 0 mm | - | 119 W/m² | - |
| 1777563638 | 17.22° C | 99% | 1015.2 hPa | 0 mm | - | 60 W/m² | - |
| 1777563338 | 17.22° C | 99% | 1014.6 hPa | 0 mm | - | 267 W/m² | - |
| 1777563034 | 17.22° C | 99% | 1014.4 hPa | 0 mm | - | 293 W/m² | - |
| 1777562730 | 17.22° C | 99% | 1014.2 hPa | 0 mm | - | 304 W/m² | - |
| 1777562424 | 16.67° C | 99% | 1014.3 hPa | 0 mm | - | 349 W/m² | - |
| 1777562121 | 16.67° C | 99% | 1014.4 hPa | 0 mm | - | 309 W/m² | - |
| 1777561819 | 16.67° C | 99% | 1014.4 hPa | 0 mm | - | 203 W/m² | - |
| 1777561514 | 16.11° C | 99% | 1014.7 hPa | 0 mm | - | 253 W/m² | - |
| 1777561210 | 16.11° C | 99% | 1014.9 hPa | 0 mm | - | 126 W/m² | - |
| 1777560908 | 16.11° C | 99% | 1015 hPa | 0 mm | - | 130 W/m² | - |
| 1777560606 | 16.11° C | 99% | 1015 hPa | 0 mm | - | 70 W/m² | - |
* Rain latest hour (hover to see other rain measurements)
** Current wind speed in m/s (hover to see current wind gust speed)